Orbital Elements at Epoch 2459200.5 (2020-Dec-17.0) TDB
Reference: JPL 27 (heliocentric ecliptic J2000)
Element | Value | Uncertainty (1-sigma) | Units |
e | .100234446255837 | 3.9399e-08 | |
a | 2.299667253482121 | 7.0306e-09 | au |
q | 2.069161379756659 | 9.2066e-08 | au |
i | 4.520854031447255 | 4.0032e-06 | deg |
node | 211.7085354262398 | 4.317e-05 | deg |
peri | 336.6700496772009 | 4.6325e-05 | deg |
M | 292.2708917242082 | 1.7396e-05 | deg |
tp | 2459440.145227983907 (2021-Aug-13.64522798) | 6.1844e-05 | TDB |
period | 1273.784407774975 3.49 | 5.8414e-06 1.599e-08 | d yr |
n | .2826223949693669 | 1.2961e-09 | deg/d |
Q | 2.530173127207582 | 7.7353e-09 | au |
|
| | Orbit Determination Parameters
Additional Information
|